1998-067TV

Last updated on Thu Jul 28 2022 00:02:05 GMT+0000 (Coordinated Universal Time)

1 53310U 98067TV 22208.31300821 .00027254 00000+0 47342-3 0 9996 2 53310 51.6428 137.8227 0004674 66.5267 77.1199 15.50612409 921
UTC large
Height (km)
Speed (km/s)
/
Latitude / Longitude
Inclination (degrees)
Orbital Period (minutes)
Azimuth
Elevation
Range (km)
Doppler Factor

Next 0 passes for location: London (51.5072 / 0.1276)

Sorry there are no passes over London.